Time,TemperatureF,DewpointF,PressureIn,WindDirection,WindDirectionDegrees,WindSpeedMPH,WindSpeedGustMPH,Humidity,HourlyPrecipIn,Conditions,Clouds,dailyrainin,SoftwareType,DateUTC
2013-02-13 00:00:00,37.5,30.7,30.06,North,358,0.0,2.7,77,0.04,,,0.00,WSDL version 420,2013-02-13 05:00:00,
2013-02-13 00:05:00,37.5,31.0,30.06,NNW,338,0.0,0.9,77,0.04,,,0.00,WSDL version 420,2013-02-13 05:05:00,
2013-02-13 00:10:00,37.6,31.0,30.06,NW,315,0.0,0.0,77,0.08,,,0.04,WSDL version 420,2013-02-13 05:10:00,
2013-02-13 00:15:00,37.5,31.0,30.06,SSE,152,0.0,2.5,77,0.08,,,0.04,WSDL version 420,2013-02-13 05:15:00,
2013-02-13 00:20:00,37.3,30.6,30.03,ENE,68,0.6,3.1,77,0.12,,,0.08,WSDL version 420,2013-02-13 05:20:00,
2013-02-13 00:25:00,37.0,30.7,30.03,NNW,338,0.0,3.1,78,0.12,,,0.08,WSDL version 420,2013-02-13 05:25:00,
2013-02-13 00:30:00,37.2,31.1,30.03,NNW,335,1.9,3.1,79,0.12,,,0.08,WSDL version 420,2013-02-13 05:30:00,
2013-02-13 00:35:00,37.1,31.5,30.03,North,10,0.7,3.1,80,0.16,,,0.12,WSDL version 420,2013-02-13 05:35:00,
2013-02-13 00:40:00,37.0,31.2,30.03,East,93,0.0,3.1,79,0.16,,,0.12,WSDL version 420,2013-02-13 05:40:00,
2013-02-13 00:45:00,37.0,30.9,30.03,East,101,0.0,0.9,78,0.16,,,0.12,WSDL version 420,2013-02-13 05:45:00,
2013-02-13 00:50:00,36.9,30.8,30.03,East,100,1.6,2.9,79,0.21,,,0.17,WSDL version 420,2013-02-13 05:50:00,
2013-02-13 00:55:00,36.9,31.1,30.03,North,352,0.0,2.9,81,0.17,,,0.17,WSDL version 420,2013-02-13 05:55:00,
2013-02-13 01:00:00,36.9,31.4,30.03,South,186,0.0,0.0,80,0.17,,,0.17,WSDL version 420,2013-02-13 06:00:00,
2013-02-13 01:05:00,37.0,31.4,30.03,NE,48,0.4,2.0,81,0.21,,,0.21,WSDL version 420,2013-02-13 06:05:00,
2013-02-13 01:10:00,36.9,31.9,30.03,East,83,0.8,4.9,82,0.21,,,0.25,WSDL version 420,2013-02-13 06:10:00,
2013-02-13 01:15:00,36.7,31.9,30.03,East,80,0.6,4.9,82,0.21,,,0.25,WSDL version 420,2013-02-13 06:15:00,
2013-02-13 01:20:00,36.7,32.0,30.00,NNE,25,0.9,3.1,83,0.17,,,0.25,WSDL version 420,2013-02-13 06:20:00,
2013-02-13 01:25:00,36.7,32.1,30.00,East,98,2.0,2.9,83,0.17,,,0.25,WSDL version 420,2013-02-13 06:25:00,
2013-02-13 01:30:00,36.7,32.3,30.00,East,79,1.6,2.9,83,0.17,,,0.25,WSDL version 420,2013-02-13 06:30:00,
2013-02-13 01:35:00,36.7,32.3,30.00,ENE,78,0.0,2.9,83,0.13,,,0.25,WSDL version 420,2013-02-13 06:35:00,
2013-02-13 01:40:00,36.8,32.3,30.00,North,357,0.0,2.0,84,0.13,,,0.25,WSDL version 420,2013-02-13 06:40:00,
2013-02-13 01:45:00,36.9,32.5,30.00,East,84,1.0,2.9,83,0.13,,,0.25,WSDL version 420,2013-02-13 06:45:00,
2013-02-13 01:50:00,36.9,32.3,30.00,ENE,59,0.3,2.9,83,0.08,,,0.25,WSDL version 420,2013-02-13 06:50:00,
2013-02-13 01:55:00,36.9,32.1,30.00,NNE,23,0.0,2.7,82,0.08,,,0.25,WSDL version 420,2013-02-13 06:55:00,
2013-02-13 02:00:00,36.9,32.0,30.00,ENE,70,0.0,0.0,82,0.08,,,0.25,WSDL version 420,2013-02-13 07:00:00,
2013-02-13 02:05:00,36.9,32.0,29.96,SE,143,0.0,0.0,82,0.04,,,0.25,WSDL version 420,2013-02-13 07:05:00,
2013-02-13 02:10:00,36.9,31.8,29.97,ENE,68,0.0,2.0,82,0.00,,,0.25,WSDL version 420,2013-02-13 07:10:00,
2013-02-13 02:15:00,37.0,31.9,29.96,ENE,76,0.6,2.2,81,0.00,,,0.25,WSDL version 420,2013-02-13 07:15:00,
2013-02-13 02:20:00,37.0,32.1,29.96,East,96,0.0,2.2,82,0.00,,,0.25,WSDL version 420,2013-02-13 07:20:00,
2013-02-13 02:25:00,37.0,32.1,29.97,NE,51,0.8,2.9,82,0.00,,,0.25,WSDL version 420,2013-02-13 07:25:00,
2013-02-13 02:30:00,36.9,32.3,29.97,ESE,113,0.4,2.9,83,0.00,,,0.25,WSDL version 420,2013-02-13 07:30:00,
2013-02-13 02:35:00,37.0,32.5,29.97,NE,48,0.0,2.2,83,0.00,,,0.25,WSDL version 420,2013-02-13 07:35:00,
2013-02-13 02:40:00,37.0,32.4,29.97,NW,315,0.0,0.0,83,0.00,,,0.25,WSDL version 420,2013-02-13 07:40:00,
2013-02-13 02:45:00,37.1,32.5,29.97,East,98,1.1,2.2,83,0.00,,,0.25,WSDL version 420,2013-02-13 07:45:00,
2013-02-13 02:50:00,37.2,32.6,29.97,NNW,338,0.0,2.2,83,0.00,,,0.25,WSDL version 420,2013-02-13 07:50:00,
2013-02-13 02:55:00,37.2,32.5,29.97,ESE,108,0.0,2.0,82,0.00,,,0.25,WSDL version 420,2013-02-13 07:55:00,
2013-02-13 03:00:00,37.4,32.7,29.96,East,87,0.4,2.0,82,0.00,,,0.25,WSDL version 420,2013-02-13 08:00:00,
2013-02-13 03:05:00,37.4,32.6,29.97,East,90,0.0,2.0,82,0.00,,,0.25,WSDL version 420,2013-02-13 08:05:00,
2013-02-13 03:10:00,37.3,32.3,29.97,East,96,1.0,2.0,82,0.00,,,0.25,WSDL version 420,2013-02-13 08:10:00,
2013-02-13 03:20:00,37.2,32.2,29.97,East,83,0.0,0.0,82,0.00,,,0.25,WSDL version 420,2013-02-13 08:20:00,
2013-02-13 03:25:00,37.2,32.2,29.97,ENE,68,0.0,0.0,81,0.00,,,0.25,WSDL version 420,2013-02-13 08:25:00,
2013-02-13 03:30:00,37.2,32.2,29.97,North,358,0.0,1.3,82,0.00,,,0.25,WSDL version 420,2013-02-13 08:30:00,
2013-02-13 03:35:00,37.2,32.3,29.93,NNE,23,0.0,1.3,82,0.00,,,0.25,WSDL version 420,2013-02-13 08:35:00,
2013-02-13 03:40:00,37.2,32.6,29.93,NNE,23,0.0,0.0,83,0.00,,,0.25,WSDL version 420,2013-02-13 08:40:00,
2013-02-13 03:45:00,37.2,32.5,29.93,NNE,23,0.0,0.0,83,0.00,,,0.25,WSDL version 420,2013-02-13 08:45:00,
2013-02-13 03:50:00,37.2,32.6,29.93,ENE,68,0.0,0.0,83,0.00,,,0.25,WSDL version 420,2013-02-13 08:50:00,
2013-02-13 06:24:00,36.7,33.7,29.91,East,87,1.6,4.0,89,0.00,,,0.25,WSDL version 420,2013-02-13 11:24:00,
2013-02-13 06:34:00,36.6,33.7,29.88,NNE,17,0.4,2.2,89,0.00,,,0.25,WSDL version 420,2013-02-13 11:34:00,
2013-02-13 06:39:00,36.6,33.6,29.88,ENE,75,0.0,2.2,89,0.00,,,0.25,WSDL version 420,2013-02-13 11:39:00,
2013-02-13 06:44:00,36.5,33.5,29.88,ENE,59,1.1,2.2,89,0.00,,,0.25,WSDL version 420,2013-02-13 11:44:00,
2013-02-13 06:49:00,36.5,33.8,29.88,ENE,65,2.2,3.4,90,0.00,,,0.25,WSDL version 420,2013-02-13 11:49:00,
2013-02-13 06:59:00,36.4,34.1,29.88,NNE,23,0.0,2.0,91,0.00,,,0.25,WSDL version 420,2013-02-13 11:59:00,
2013-02-13 07:04:00,36.5,34.2,29.91,ENE,68,0.0,0.0,91,0.00,,,0.25,WSDL version 420,2013-02-13 12:04:00,
2013-02-13 07:09:00,36.5,34.2,29.91,ENE,68,0.0,0.0,91,0.00,,,0.25,WSDL version 420,2013-02-13 12:09:00,
2013-02-13 07:14:00,36.7,34.1,29.91,NE,45,0.0,0.0,90,0.00,,,0.25,WSDL version 420,2013-02-13 12:14:00,
2013-02-13 07:19:00,36.6,33.9,29.91,ENE,71,0.7,2.7,90,0.00,,,0.25,WSDL version 420,2013-02-13 12:19:00,
2013-02-13 07:24:00,36.5,33.9,29.91,NE,45,0.0,2.7,90,0.00,,,0.25,WSDL version 420,2013-02-13 12:24:00,
2013-02-13 07:29:00,36.7,34.0,29.91,SE,127,0.0,0.0,90,0.00,,,0.25,WSDL version 420,2013-02-13 12:29:00,
2013-02-13 07:34:00,36.7,34.0,29.91,East,88,0.0,0.0,90,0.00,,,0.25,WSDL version 420,2013-02-13 12:34:00,
2013-02-13 07:39:00,36.7,34.0,29.91,North,360,0.0,0.0,90,0.00,,,0.25,WSDL version 420,2013-02-13 12:39:00,
2013-02-13 07:44:00,36.7,34.0,29.91,NNE,32,0.0,0.0,90,0.00,,,0.25,WSDL version 420,2013-02-13 12:44:00,
2013-02-13 07:49:00,36.7,34.0,29.91,ENE,70,0.6,2.9,90,0.00,,,0.25,WSDL version 420,2013-02-13 12:49:00,
2013-02-13 07:54:00,36.7,34.0,29.91,ENE,68,1.2,2.9,90,0.04,,,0.29,WSDL version 420,2013-02-13 12:54:00,
2013-02-13 07:59:00,36.7,34.2,29.91,NE,45,0.0,2.5,91,0.04,,,0.29,WSDL version 420,2013-02-13 12:59:00,
2013-02-13 08:04:00,36.8,34.5,29.91,ENE,65,1.2,3.6,91,0.04,,,0.29,WSDL version 420,2013-02-13 13:04:00,
2013-02-13 08:09:00,36.7,34.4,29.91,East,86,1.9,3.6,91,0.04,,,0.29,WSDL version 420,2013-02-13 13:09:00,
2013-02-13 08:14:00,36.7,34.3,29.92,East,84,1.9,3.1,91,0.04,,,0.29,WSDL version 420,2013-02-13 13:14:00,
2013-02-13 08:19:00,36.7,34.5,29.88,ENE,64,0.5,2.7,92,0.04,,,0.29,WSDL version 420,2013-02-13 13:19:00,
2013-02-13 08:24:00,36.7,34.6,29.88,East,90,1.3,2.9,92,0.04,,,0.29,WSDL version 420,2013-02-13 13:24:00,
2013-02-13 08:29:00,36.7,34.7,29.88,East,87,1.8,2.9,93,0.04,,,0.29,WSDL version 420,2013-02-13 13:29:00,
2013-02-13 08:34:00,36.8,35.0,29.92,NNW,338,0.0,2.9,93,0.04,,,0.29,WSDL version 420,2013-02-13 13:34:00,
2013-02-13 08:44:00,36.7,35.0,29.92,NE,51,1.4,3.8,93,0.04,,,0.29,WSDL version 420,2013-02-13 13:44:00,
2013-02-13 08:49:00,36.8,35.0,29.92,ENE,68,0.6,3.6,93,0.04,,,0.29,WSDL version 420,2013-02-13 13:49:00,
2013-02-13 08:54:00,36.9,35.1,29.92,ENE,73,0.7,3.1,93,0.00,,,0.29,WSDL version 420,2013-02-13 13:54:00,
2013-02-13 08:59:00,36.9,35.1,29.92,ENE,73,1.3,2.5,93,0.00,,,0.29,WSDL version 420,2013-02-13 13:59:00,
2013-02-13 09:04:00,36.9,35.1,29.88,East,100,0.5,2.5,93,0.00,,,0.29,WSDL version 420,2013-02-13 14:04:00,
2013-02-13 09:09:00,36.9,35.1,29.88,ENE,60,0.0,2.5,93,0.00,,,0.29,WSDL version 420,2013-02-13 14:09:00,
2013-02-13 09:14:00,37.0,35.2,29.88,NE,45,0.0,2.0,93,0.00,,,0.29,WSDL version 420,2013-02-13 14:14:00,
2013-02-13 09:24:00,37.0,35.6,29.88,NNE,20,0.0,2.2,94,0.00,,,0.29,WSDL version 420,2013-02-13 14:24:00,
2013-02-13 09:29:00,37.0,35.3,29.88,ENE,76,0.0,2.5,93,0.00,,,0.29,WSDL version 420,2013-02-13 14:29:00,
2013-02-13 09:34:00,37.2,35.6,29.88,NNE,23,0.0,2.5,94,0.00,,,0.29,WSDL version 420,2013-02-13 14:34:00,
2013-02-13 09:39:00,37.2,35.8,29.88,ENE,65,0.0,1.1,94,0.00,,,0.29,WSDL version 420,2013-02-13 14:39:00,
2013-02-13 09:44:00,37.4,35.7,29.88,SW,225,0.6,3.1,93,0.00,,,0.29,WSDL version 420,2013-02-13 14:44:00,
2013-02-13 09:49:00,37.4,35.7,29.88,ENE,68,0.4,3.1,93,0.00,,,0.29,WSDL version 420,2013-02-13 14:49:00,
2013-02-13 09:54:00,37.4,35.7,29.88,NE,43,0.1,2.9,93,0.00,,,0.29,WSDL version 420,2013-02-13 14:54:00,
2013-02-13 09:59:00,37.6,35.8,29.88,NE,48,0.0,0.9,93,0.00,,,0.29,WSDL version 420,2013-02-13 14:59:00,
2013-02-13 10:04:00,37.6,35.9,29.88,NNW,338,0.4,1.6,93,0.00,,,0.29,WSDL version 420,2013-02-13 15:04:00,
2013-02-13 10:09:00,37.8,36.0,29.88,ENE,68,0.0,1.6,93,0.00,,,0.29,WSDL version 420,2013-02-13 15:09:00,
2013-02-13 10:14:00,37.8,36.0,29.88,NE,37,0.4,2.7,93,0.00,,,0.29,WSDL version 420,2013-02-13 15:14:00,
2013-02-13 10:19:00,37.9,36.2,29.88,ENE,73,0.7,2.7,93,0.00,,,0.29,WSDL version 420,2013-02-13 15:19:00,
2013-02-13 10:24:00,37.9,36.2,29.88,ENE,70,0.7,2.7,93,0.00,,,0.29,WSDL version 420,2013-02-13 15:24:00,
2013-02-13 10:29:00,37.9,36.2,29.88,ENE,78,1.6,2.7,93,0.00,,,0.29,WSDL version 420,2013-02-13 15:29:00,
2013-02-13 10:34:00,37.9,36.1,29.88,ENE,63,1.3,2.7,93,0.00,,,0.29,WSDL version 420,2013-02-13 15:34:00,
2013-02-13 10:39:00,37.8,36.0,29.88,ENE,76,1.3,3.4,93,0.00,,,0.29,WSDL version 420,2013-02-13 15:39:00,
2013-02-13 10:44:00,37.8,36.0,29.88,ENE,68,1.1,3.4,93,0.00,,,0.29,WSDL version 420,2013-02-13 15:44:00,
2013-02-13 10:49:00,37.8,36.0,29.88,ENE,70,0.7,3.1,93,0.00,,,0.29,WSDL version 420,2013-02-13 15:49:00,
2013-02-13 10:54:00,37.8,36.0,29.88,East,79,1.8,2.9,93,0.00,,,0.29,WSDL version 420,2013-02-13 15:54:00,
2013-02-13 10:59:00,37.8,36.0,29.88,ENE,68,0.7,2.9,93,0.00,,,0.29,WSDL version 420,2013-02-13 15:59:00,
2013-02-13 11:04:00,37.8,36.1,29.88,ENE,62,0.1,2.7,93,0.00,,,0.29,WSDL version 420,2013-02-13 16:04:00,
2013-02-13 11:09:00,37.9,36.2,29.88,East,88,0.6,2.5,93,0.00,,,0.29,WSDL version 420,2013-02-13 16:09:00,
2013-02-13 11:14:00,37.9,36.2,29.88,ENE,68,0.0,2.5,93,0.00,,,0.29,WSDL version 420,2013-02-13 16:14:00,
2013-02-13 11:24:00,38.1,36.4,29.88,ENE,68,0.6,2.0,93,0.00,,,0.29,WSDL version 420,2013-02-13 16:24:00,
2013-02-13 11:29:00,38.2,36.4,29.88,NE,45,0.0,2.0,93,0.00,,,0.29,WSDL version 420,2013-02-13 16:29:00,
2013-02-13 11:34:00,38.4,36.7,29.85,North,354,0.0,0.0,93,0.00,,,0.29,WSDL version 420,2013-02-13 16:34:00,
2013-02-13 11:39:00,38.6,36.9,29.85,NNW,338,0.0,0.0,93,0.00,,,0.29,WSDL version 420,2013-02-13 16:39:00,
2013-02-13 11:44:00,38.9,37.2,29.85,North,355,0.0,0.0,93,0.00,,,0.29,WSDL version 420,2013-02-13 16:44:00,
2013-02-13 11:49:00,39.1,37.4,29.85,ENE,74,0.9,2.5,93,0.00,,,0.29,WSDL version 420,2013-02-13 16:49:00,
2013-02-13 11:54:00,39.2,37.4,29.85,West,280,0.0,2.5,93,0.00,,,0.29,WSDL version 420,2013-02-13 16:54:00,
2013-02-13 11:59:00,39.2,37.3,29.85,SE,132,0.0,0.0,92,0.00,,,0.29,WSDL version 420,2013-02-13 16:59:00,
2013-02-13 12:04:00,39.2,37.2,29.81,SE,125,1.4,2.7,92,0.00,,,0.29,WSDL version 420,2013-02-13 17:04:00,
2013-02-13 12:09:00,39.5,37.5,29.81,SSE,158,0.0,2.9,93,0.00,,,0.29,WSDL version 420,2013-02-13 17:09:00,
2013-02-13 12:14:00,39.6,37.6,29.81,East,80,0.9,2.9,92,0.00,,,0.29,WSDL version 420,2013-02-13 17:14:00,
2013-02-13 12:19:00,39.4,37.4,29.85,East,95,0.9,3.8,92,0.00,,,0.29,WSDL version 420,2013-02-13 17:19:00,
2013-02-13 12:24:00,39.1,37.1,29.85,East,84,0.8,3.8,92,0.00,,,0.29,WSDL version 420,2013-02-13 17:24:00,
2013-02-13 12:29:00,39.0,36.9,29.85,ENE,68,0.0,2.9,91,0.00,,,0.29,WSDL version 420,2013-02-13 17:29:00,
2013-02-13 12:34:00,38.9,36.5,29.82,NE,39,0.0,1.3,91,0.00,,,0.29,WSDL version 420,2013-02-13 17:34:00,
2013-02-13 12:39:00,38.8,36.6,29.82,NE,53,0.0,1.6,92,0.00,,,0.29,WSDL version 420,2013-02-13 17:39:00,
2013-02-13 12:44:00,38.8,36.6,29.82,ENE,74,0.8,2.9,91,0.00,,,0.29,WSDL version 420,2013-02-13 17:44:00,
2013-02-13 12:49:00,38.7,36.6,29.82,ESE,108,0.4,2.9,92,0.00,,,0.29,WSDL version 420,2013-02-13 17:49:00,
2013-02-13 12:54:00,38.8,36.7,29.82,SE,124,1.3,2.9,92,0.00,,,0.29,WSDL version 420,2013-02-13 17:54:00,
2013-02-13 12:59:00,38.9,36.9,29.82,SW,236,0.0,2.0,92,0.00,,,0.29,WSDL version 420,2013-02-13 17:59:00,
2013-02-13 13:04:00,39.1,37.1,29.82,WNW,303,0.0,2.2,92,0.00,,,0.29,WSDL version 420,2013-02-13 18:04:00,
2013-02-13 13:09:00,39.3,37.2,29.82,South,191,0.0,2.2,92,0.00,,,0.29,WSDL version 420,2013-02-13 18:09:00,
2013-02-13 13:14:00,39.4,37.3,29.82,East,98,2.0,2.7,92,0.00,,,0.29,WSDL version 420,2013-02-13 18:14:00,
2013-02-13 13:19:00,39.2,37.1,29.78,East,90,1.3,2.7,92,0.00,,,0.29,WSDL version 420,2013-02-13 18:19:00,
2013-02-13 13:24:00,39.2,37.1,29.78,East,93,0.6,2.5,92,0.00,,,0.29,WSDL version 420,2013-02-13 18:24:00,
2013-02-13 13:29:00,39.1,37.2,29.78,East,90,0.4,2.5,93,0.00,,,0.29,WSDL version 420,2013-02-13 18:29:00,
2013-02-13 13:34:00,39.2,37.2,29.82,East,98,0.0,2.0,92,0.00,,,0.29,WSDL version 420,2013-02-13 18:34:00,
2013-02-13 13:39:00,39.2,37.1,29.82,East,90,0.0,1.6,92,0.00,,,0.29,WSDL version 420,2013-02-13 18:39:00,
2013-02-13 13:44:00,39.4,37.3,29.82,East,90,0.4,1.6,92,0.00,,,0.29,WSDL version 420,2013-02-13 18:44:00,
2013-02-13 13:49:00,39.4,37.3,29.82,ESE,113,0.0,2.0,92,0.00,,,0.29,WSDL version 420,2013-02-13 18:49:00,
2013-02-13 13:54:00,39.4,37.3,29.82,ESE,113,0.0,2.2,92,0.00,,,0.29,WSDL version 420,2013-02-13 18:54:00,
2013-02-13 13:59:00,39.7,37.8,29.82,ESE,113,0.0,2.2,93,0.00,,,0.29,WSDL version 420,2013-02-13 18:59:00,
2013-02-13 14:04:00,39.8,38.1,29.78,ESE,113,0.0,0.0,93,0.00,,,0.29,WSDL version 420,2013-02-13 19:04:00,
2013-02-13 14:09:00,40.2,38.4,29.78,SSW,203,0.0,0.0,93,0.00,,,0.29,WSDL version 420,2013-02-13 19:09:00,
2013-02-13 14:14:00,40.6,39.0,29.78,NW,323,0.6,1.6,94,0.00,,,0.29,WSDL version 420,2013-02-13 19:14:00,
2013-02-13 14:19:00,40.9,39.3,29.78,ESE,107,1.7,3.8,93,0.00,,,0.29,WSDL version 420,2013-02-13 19:19:00,
2013-02-13 14:24:00,41.3,39.8,29.78,ESE,113,0.0,3.8,94,0.00,,,0.29,WSDL version 420,2013-02-13 19:24:00,
2013-02-13 14:29:00,42.1,40.7,29.78,SSW,211,1.3,2.9,96,0.00,,,0.29,WSDL version 420,2013-02-13 19:29:00,
2013-02-13 14:34:00,42.7,41.5,29.78,West,265,0.7,3.4,96,0.00,,,0.29,WSDL version 420,2013-02-13 19:34:00,
2013-02-13 14:39:00,43.3,42.1,29.77,ESE,123,0.4,3.6,96,0.00,,,0.29,WSDL version 420,2013-02-13 19:39:00,
2013-02-13 14:44:00,43.7,42.5,29.77,SSE,163,0.9,5.8,96,0.00,,,0.29,WSDL version 420,2013-02-13 19:44:00,
2013-02-13 14:49:00,44.1,42.8,29.77,North,357,0.8,5.8,94,0.00,,,0.29,WSDL version 420,2013-02-13 19:49:00,
2013-02-13 14:54:00,44.5,42.8,29.77,ESE,115,1.1,2.2,93,0.00,,,0.29,WSDL version 420,2013-02-13 19:54:00,
2013-02-13 14:59:00,44.9,43.0,29.77,SSE,158,1.6,3.1,93,0.00,,,0.29,WSDL version 420,2013-02-13 19:59:00,
2013-02-13 15:04:00,45.1,43.1,29.77,SE,127,2.0,3.1,92,0.00,,,0.29,WSDL version 420,2013-02-13 20:04:00,
2013-02-13 15:09:00,45.1,42.3,29.77,NNE,17,0.0,3.4,89,0.00,,,0.29,WSDL version 420,2013-02-13 20:09:00,
2013-02-13 15:14:00,45.3,41.9,29.77,SSW,208,0.0,3.4,88,0.00,,,0.29,WSDL version 420,2013-02-13 20:14:00,
2013-02-13 15:19:00,45.5,41.9,29.77,NNE,31,1.1,2.5,87,0.00,,,0.29,WSDL version 420,2013-02-13 20:19:00,
2013-02-13 15:24:00,45.9,42.1,29.77,NW,321,0.0,2.5,87,0.00,,,0.29,WSDL version 420,2013-02-13 20:24:00,
2013-02-13 15:29:00,46.0,42.0,29.77,South,183,0.5,2.0,86,0.00,,,0.29,WSDL version 420,2013-02-13 20:29:00,
2013-02-13 15:34:00,46.3,41.8,29.77,SE,132,0.0,2.5,84,0.00,,,0.29,WSDL version 420,2013-02-13 20:34:00,
2013-02-13 15:39:00,46.2,41.6,29.77,South,188,0.4,2.5,83,0.00,,,0.29,WSDL version 420,2013-02-13 20:39:00,
2013-02-13 15:44:00,46.2,41.5,29.77,NW,320,2.9,4.9,83,0.00,,,0.29,WSDL version 420,2013-02-13 20:44:00,
2013-02-13 15:49:00,46.3,41.2,29.77,West,268,1.8,4.9,80,0.00,,,0.29,WSDL version 420,2013-02-13 20:49:00,
2013-02-13 15:54:00,45.9,40.0,29.77,East,90,1.2,2.9,79,0.00,,,0.29,WSDL version 420,2013-02-13 20:54:00,
2013-02-13 15:59:00,45.5,39.4,29.77,WSW,240,1.2,2.9,79,0.00,,,0.29,WSDL version 420,2013-02-13 20:59:00,
2013-02-13 16:04:00,45.4,39.4,29.77,SSW,199,3.0,5.4,78,0.00,,,0.29,WSDL version 420,2013-02-13 21:04:00,
2013-02-13 16:09:00,45.3,38.8,29.77,South,172,1.9,5.8,77,0.00,,,0.29,WSDL version 420,2013-02-13 21:09:00,
2013-02-13 16:14:00,45.2,38.1,29.77,South,170,1.8,5.8,76,0.00,,,0.29,WSDL version 420,2013-02-13 21:14:00,
2013-02-13 16:19:00,45.1,38.0,29.77,West,263,1.7,5.8,75,0.00,,,0.29,WSDL version 420,2013-02-13 21:19:00,
2013-02-13 16:24:00,45.1,37.1,29.77,NNE,15,2.1,5.8,72,0.00,,,0.29,WSDL version 420,2013-02-13 21:24:00,
2013-02-13 16:29:00,45.0,36.5,29.77,NE,48,2.1,4.7,72,0.00,,,0.29,WSDL version 420,2013-02-13 21:29:00,
2013-02-13 16:34:00,44.8,36.1,29.81,WNW,290,2.2,8.7,71,0.00,,,0.29,WSDL version 420,2013-02-13 21:34:00,
2013-02-13 16:39:00,44.7,35.9,29.81,North,350,2.8,8.7,71,0.00,,,0.29,WSDL version 420,2013-02-13 21:39:00,
2013-02-13 16:44:00,44.3,36.0,29.81,NW,308,4.7,7.6,73,0.00,,,0.29,WSDL version 420,2013-02-13 21:44:00,
2013-02-13 16:49:00,44.0,34.9,29.81,SSE,149,1.9,8.5,70,0.00,,,0.29,WSDL version 420,2013-02-13 21:49:00,
2013-02-13 16:54:00,43.7,34.9,29.81,South,188,2.4,8.5,71,0.00,,,0.29,WSDL version 420,2013-02-13 21:54:00,
2013-02-13 16:59:00,43.5,34.1,29.81,West,270,4.4,7.4,69,0.00,,,0.29,WSDL version 420,2013-02-13 21:59:00,
2013-02-13 17:04:00,43.2,33.7,29.81,SW,217,3.0,10.7,69,0.00,,,0.29,WSDL version 420,2013-02-13 22:04:00,
2013-02-13 17:09:00,43.0,33.2,29.81,East,98,3.1,10.7,68,0.00,,,0.29,WSDL version 420,2013-02-13 22:09:00,
2013-02-13 17:14:00,42.8,33.2,29.81,South,174,2.1,9.4,69,0.00,,,0.29,WSDL version 420,2013-02-13 22:14:00,
2013-02-13 17:19:00,42.8,33.6,29.81,NNW,343,1.8,7.6,68,0.00,,,0.29,WSDL version 420,2013-02-13 22:19:00,
2013-02-13 17:24:00,43.0,32.4,29.81,West,268,2.7,7.8,67,0.00,,,0.29,WSDL version 420,2013-02-13 22:24:00,
2013-02-13 17:29:00,42.8,31.2,29.81,West,270,3.5,7.8,62,0.00,,,0.29,WSDL version 420,2013-02-13 22:29:00,
2013-02-13 17:34:00,42.8,31.0,29.81,WNW,293,1.5,6.0,64,0.00,,,0.29,WSDL version 420,2013-02-13 22:34:00,
2013-02-13 17:39:00,42.5,30.9,29.81,ENE,73,2.5,7.4,63,0.00,,,0.29,WSDL version 420,2013-02-13 22:39:00,
2013-02-13 17:44:00,42.2,30.5,29.81,ESE,113,3.0,7.4,64,0.00,,,0.29,WSDL version 420,2013-02-13 22:44:00,
2013-02-13 17:49:00,41.8,30.7,29.85,SSE,160,1.3,6.0,64,0.00,,,0.29,WSDL version 420,2013-02-13 22:49:00,
2013-02-13 17:54:00,41.4,30.2,29.85,SSE,163,2.1,7.6,64,0.00,,,0.29,WSDL version 420,2013-02-13 22:54:00,
2013-02-13 17:59:00,40.9,30.1,29.85,SW,233,4.4,7.6,65,0.00,,,0.29,WSDL version 420,2013-02-13 22:59:00,
2013-02-13 18:04:00,40.4,29.8,29.85,WSW,255,4.3,9.6,66,0.00,,,0.29,WSDL version 420,2013-02-13 23:04:00,
2013-02-13 18:09:00,39.9,29.5,29.85,WNW,285,4.5,15.9,66,0.00,,,0.29,WSDL version 420,2013-02-13 23:09:00,
2013-02-13 18:14:00,39.5,29.2,29.85,SW,231,3.3,15.9,67,0.00,,,0.29,WSDL version 420,2013-02-13 23:14:00,
2013-02-13 18:19:00,39.2,29.1,29.88,WSW,250,5.4,13.2,67,0.00,,,0.29,WSDL version 420,2013-02-13 23:19:00,
2013-02-13 18:24:00,38.8,29.0,29.89,WSW,239,5.9,10.1,68,0.00,,,0.29,WSDL version 420,2013-02-13 23:24:00,
2013-02-13 18:29:00,38.5,29.3,29.89,SSE,155,3.2,10.1,70,0.00,,,0.29,WSDL version 420,2013-02-13 23:29:00,
2013-02-13 18:34:00,38.2,29.4,29.92,WSW,248,1.9,8.1,71,0.00,,,0.29,WSDL version 420,2013-02-13 23:34:00,
2013-02-13 18:39:00,37.9,29.4,29.92,West,274,5.0,9.8,72,0.00,,,0.29,WSDL version 420,2013-02-13 23:39:00,
2013-02-13 18:44:00,37.6,29.4,29.92,WSW,245,2.5,9.8,72,0.00,,,0.29,WSDL version 420,2013-02-13 23:44:00,
2013-02-13 18:49:00,37.5,29.0,29.92,West,264,3.8,7.4,71,0.00,,,0.29,WSDL version 420,2013-02-13 23:49:00,
2013-02-13 18:54:00,37.1,28.9,29.92,WNW,290,4.6,9.8,73,0.00,,,0.29,WSDL version 420,2013-02-13 23:54:00,
2013-02-13 18:59:00,36.9,28.4,29.92,North,3,2.9,9.8,70,0.00,,,0.29,WSDL version 420,2013-02-13 23:59:00,
2013-02-13 19:04:00,36.9,28.2,29.96,SW,214,2.9,6.3,70,0.00,,,0.29,WSDL version 420,2013-02-14 00:04:00,
2013-02-13 19:09:00,36.7,27.6,29.96,SSW,208,5.0,10.5,69,0.00,,,0.29,WSDL version 420,2013-02-14 00:09:00,
2013-02-13 19:14:00,36.7,27.7,29.96,WNW,290,2.9,10.5,70,0.00,,,0.29,WSDL version 420,2013-02-14 00:14:00,
2013-02-13 19:19:00,36.4,27.4,29.96,North,3,3.0,8.5,70,0.00,,,0.29,WSDL version 420,2013-02-14 00:19:00,
2013-02-13 19:24:00,36.2,27.1,29.96,South,180,2.8,8.5,69,0.00,,,0.29,WSDL version 420,2013-02-14 00:24:00,
2013-02-13 19:29:00,36.1,27.2,29.96,West,268,1.8,6.7,69,0.00,,,0.29,WSDL version 420,2013-02-14 00:29:00,
2013-02-13 19:34:00,36.0,26.9,29.93,NE,39,1.0,6.0,70,0.00,,,0.29,WSDL version 420,2013-02-14 00:34:00,
2013-02-13 19:39:00,35.8,26.8,29.93,SSW,213,2.1,4.3,69,0.00,,,0.29,WSDL version 420,2013-02-14 00:39:00,
2013-02-13 19:44:00,35.8,26.6,29.93,NW,326,3.5,8.1,68,0.00,,,0.29,WSDL version 420,2013-02-14 00:44:00,
2013-02-13 19:49:00,35.8,26.1,29.93,West,265,2.4,8.1,68,0.00,,,0.29,WSDL version 420,2013-02-14 00:49:00,
2013-02-13 19:54:00,35.7,26.0,29.93,WNW,298,5.1,10.3,67,0.00,,,0.29,WSDL version 420,2013-02-14 00:54:00,
2013-02-13 19:59:00,35.6,26.2,29.93,West,276,5.1,10.3,69,0.00,,,0.29,WSDL version 420,2013-02-14 00:59:00,
2013-02-13 20:04:00,35.6,26.2,29.96,SW,228,4.4,8.7,68,0.00,,,0.29,WSDL version 420,2013-02-14 01:04:00,
2013-02-13 20:09:00,-999.0,-99.9,29.96,SSW,193,2.3,8.7,-999,0.00,,,0.29,WSDL version 420,2013-02-14 01:09:00,
2013-02-13 20:14:00,35.3,25.7,29.96,NW,308,4.0,11.0,68,0.00,,,0.29,WSDL version 420,2013-02-14 01:14:00,
2013-02-13 20:19:00,35.2,25.4,29.93,WSW,258,4.9,11.0,67,0.00,,,0.29,WSDL version 420,2013-02-14 01:19:00,
2013-02-13 20:24:00,35.2,25.0,29.93,WSW,245,5.0,14.3,66,0.00,,,0.29,WSDL version 420,2013-02-14 01:24:00,
2013-02-13 20:29:00,35.2,25.2,29.93,West,263,3.1,14.3,67,0.00,,,0.29,WSDL version 420,2013-02-14 01:29:00,
2013-02-13 20:34:00,35.2,25.5,29.96,West,262,3.8,8.5,68,0.00,,,0.29,WSDL version 420,2013-02-14 01:34:00,
2013-02-13 20:39:00,35.2,25.7,29.96,WNW,293,4.5,8.7,68,0.00,,,0.29,WSDL version 420,2013-02-14 01:39:00,
2013-02-13 20:44:00,35.1,25.9,29.96,WNW,283,5.1,8.7,70,0.00,,,0.29,WSDL version 420,2013-02-14 01:44:00,
2013-02-13 20:49:00,35.1,26.0,29.99,WNW,290,5.5,10.5,70,0.00,,,0.29,WSDL version 420,2013-02-14 01:49:00,
2013-02-13 20:54:00,35.0,26.0,29.99,West,270,3.8,10.5,69,0.00,,,0.29,WSDL version 420,2013-02-14 01:54:00,
2013-02-13 20:59:00,34.9,26.0,29.99,SW,225,3.9,9.6,70,0.00,,,0.29,WSDL version 420,2013-02-14 01:59:00,
2013-02-13 21:04:00,34.8,26.0,29.99,WNW,293,4.0,8.7,70,0.00,,,0.29,WSDL version 420,2013-02-14 02:04:00,
2013-02-13 21:09:00,34.7,26.1,29.99,WSW,253,2.9,8.5,70,0.00,,,0.29,WSDL version 420,2013-02-14 02:09:00,
2013-02-13 21:14:00,34.5,25.8,29.99,West,273,2.6,7.4,71,0.00,,,0.29,WSDL version 420,2013-02-14 02:14:00,
2013-02-13 21:19:00,34.3,26.0,29.99,SSW,203,3.0,10.7,71,0.00,,,0.29,WSDL version 420,2013-02-14 02:19:00,
2013-02-13 21:24:00,34.3,25.7,29.99,WSW,253,2.0,10.7,70,0.00,,,0.29,WSDL version 420,2013-02-14 02:24:00,
2013-02-13 21:29:00,34.2,25.7,29.99,NNW,346,5.3,9.4,70,0.00,,,0.29,WSDL version 420,2013-02-14 02:29:00,
2013-02-13 21:34:00,34.0,25.2,29.96,ENE,63,2.5,9.4,70,0.00,,,0.29,WSDL version 420,2013-02-14 02:34:00,
2013-02-13 21:39:00,34.0,25.2,29.96,SSW,208,3.2,6.3,70,0.00,,,0.29,WSDL version 420,2013-02-14 02:39:00,
2013-02-13 21:44:00,33.9,24.7,29.96,WSW,250,4.4,7.8,68,0.00,,,0.29,WSDL version 420,2013-02-14 02:44:00,
2013-02-13 21:49:00,33.8,24.3,29.99,WSW,250,4.0,12.8,68,0.00,,,0.29,WSDL version 420,2013-02-14 02:49:00,
2013-02-13 21:54:00,33.6,24.2,29.99,SW,233,6.6,12.8,68,0.00,,,0.29,WSDL version 420,2013-02-14 02:54:00,
2013-02-13 21:59:00,33.6,24.2,29.99,WSW,250,7.2,10.7,68,0.00,,,0.29,WSDL version 420,2013-02-14 02:59:00,
2013-02-13 22:04:00,33.6,24.1,29.99,WSW,243,6.1,8.5,67,0.00,,,0.29,WSDL version 420,2013-02-14 03:04:00,
2013-02-13 22:09:00,33.6,24.3,29.99,West,267,3.2,8.1,69,0.00,,,0.29,WSDL version 420,2013-02-14 03:09:00,
2013-02-13 22:14:00,33.6,24.5,29.99,West,263,5.3,7.8,69,0.00,,,0.29,WSDL version 420,2013-02-14 03:14:00,
2013-02-13 22:19:00,33.6,24.5,29.99,South,169,1.6,7.8,69,0.00,,,0.29,WSDL version 420,2013-02-14 03:19:00,
2013-02-13 22:24:00,33.5,24.4,29.99,WSW,258,4.0,6.3,68,0.00,,,0.29,WSDL version 420,2013-02-14 03:24:00,
2013-02-13 22:29:00,33.5,24.1,29.99,SW,231,3.6,6.5,68,0.00,,,0.29,WSDL version 420,2013-02-14 03:29:00,
2013-02-13 22:34:00,33.6,24.1,30.03,West,275,3.6,7.6,68,0.00,,,0.29,WSDL version 420,2013-02-14 03:34:00,
2013-02-13 22:39:00,33.6,24.2,30.03,WSW,256,3.9,7.6,68,0.00,,,0.29,WSDL version 420,2013-02-14 03:39:00,
2013-02-13 22:44:00,33.5,24.3,30.03,SW,219,3.2,8.7,68,0.00,,,0.29,WSDL version 420,2013-02-14 03:44:00,
2013-02-13 22:49:00,33.5,24.2,29.99,West,273,2.8,8.7,69,0.00,,,0.29,WSDL version 420,2013-02-14 03:49:00,
2013-02-13 22:54:00,33.4,24.4,29.99,WSW,257,2.5,8.5,70,0.00,,,0.29,WSDL version 420,2013-02-14 03:54:00,
2013-02-13 22:59:00,33.4,24.5,29.99,SW,225,2.7,8.5,69,0.00,,,0.29,WSDL version 420,2013-02-14 03:59:00,
2013-02-13 23:04:00,33.4,24.8,29.99,WNW,289,3.9,7.2,70,0.00,,,0.29,WSDL version 420,2013-02-14 04:04:00,
2013-02-13 23:09:00,33.3,24.7,29.99,WNW,283,1.6,7.2,71,0.00,,,0.29,WSDL version 420,2013-02-14 04:09:00,
2013-02-13 23:14:00,33.3,24.9,29.99,WSW,243,2.3,8.7,71,0.00,,,0.29,WSDL version 420,2013-02-14 04:14:00,
2013-02-13 23:19:00,33.3,24.9,29.99,South,170,2.4,8.7,71,0.00,,,0.29,WSDL version 420,2013-02-14 04:19:00,
2013-02-13 23:24:00,33.2,24.8,29.99,WNW,285,2.8,7.8,71,0.00,,,0.29,WSDL version 420,2013-02-14 04:24:00,
2013-02-13 23:29:00,33.1,24.6,29.99,SSW,199,3.9,8.7,70,0.00,,,0.29,WSDL version 420,2013-02-14 04:29:00,
2013-02-13 23:34:00,33.1,24.6,29.99,WSW,245,1.6,8.7,71,0.00,,,0.29,WSDL version 420,2013-02-14 04:34:00,
2013-02-13 23:39:00,33.1,24.7,29.99,SW,231,3.6,7.4,71,0.00,,,0.29,WSDL version 420,2013-02-14 04:39:00,
2013-02-13 23:44:00,33.1,24.8,29.99,SW,230,4.2,7.4,72,0.00,,,0.29,WSDL version 420,2013-02-14 04:44:00,
2013-02-13 23:49:00,32.9,24.9,30.03,SW,222,2.8,7.8,72,0.00,,,0.29,WSDL version 420,2013-02-14 04:49:00,
2013-02-13 23:54:00,32.9,24.7,30.03,WNW,290,1.8,7.8,71,0.00,,,0.29,WSDL version 420,2013-02-14 04:54:00,
2013-02-13 23:59:00,32.8,24.3,30.03,SW,236,2.3,7.8,70,0.00,,,0.29,WSDL version 420,2013-02-14 04:59:00,